Regional Weather Roundup
Issued by NWS Midland/Odessa, TX

Skip options and go directly to product.
Home | Oldest Version | Previous Version | Current Version | All | Graphics & Text | Save Text | Print | Product List | Glossary On

Skip product version selection by date and time.   
702
ASUS44 KMAF 310410
RWRMAF
MIDLAND AREA WEATHER ROUNDUP
NATIONAL WEATHER SERVICE MIDLAND TX
1100 PM CDT SUN AUG 30 2015

...IN SOUTHWEST TEXAS AND SOUTHEAST NEW MEXICO...

CITY           SKY/WX    TMP DP  RH WIND       PRES   REMARKS
ALPINE         CLEAR     73  50  44 S12       30.17S
ANDREWS        FAIR      73  58  58 S7        30.05S
ARTESIA        CLEAR     73  50  43 S9        30.05R
BIG SPRING     CLEAR     75  58  54 SE9       30.05S
CARLSBAD       CLEAR     75  46  35 MISG      30.03R
DRYDEN           N/A     79  62  56 VRB3      30.01R
FORT STOCKTON  CLEAR     78  57  48 SE16G22   30.04R
GUAD PASS      CLEAR     70  45  40 NE12      30.20R
HOBBS            N/A     72  54  53 CALM      30.08S
MARFA          CLEAR     64  48  55 CALM      30.16R
MIDLAND AIRPK  CLEAR     78  55  46 S9        30.04S
MIDLAND INTL   CLEAR     77  56  48 S9        30.04R
ODESSA         CLEAR     78  54  43 S12       30.05R
PECOS          CLEAR     80  49  33 SE12      30.00R
PRESIDIO       NOT AVBL
SEMINOLE       CLEAR     73  53  49 S6        30.07R
SNYDER         CLEAR     78  58  49 S8        30.03R
WINK           CLEAR     78  58  49 SE12      30.01R
$$
...OTHER STATIONS IN TEXAS...

CITY           SKY/WX    TMP DP  RH WIND       PRES   REMARKS
ABILENE        CLEAR     80  58  46 S12       30.00S
AMARILLO       CLEAR     72  54  53 S10       30.05R
AUSTIN         PTCLDY    76  67  73 CALM      29.98S
BROWNSVILLE    CLEAR     77  74  90 SE8       29.96R
CORPUS CHRISTI PTCLDY    81  72  74 SE8       29.95S
DALLAS FTW     PTCLDY    83  62  49 S13       29.94S
DEL RIO        MOCLDY    79  62  56 E5        29.95R
EL PASO        CLEAR     81  45  28 S6        30.04R
HOUSTON INT    PTCLDY    78  69  73 S5        29.99S
LUBBOCK        CLEAR     75  54  47 S7        30.04S
SAN ANGELO     CLEAR     72  62  71 S5        30.02R
SAN ANTONIO    FAIR      79  63  57 E9        29.99R
WACO           PTCLDY    75  67  76 SW7       29.97F
WICHITA FALLS  NOT AVBL
$$
...OTHER LOCATIONS IN NEW MEXICO...

CITY           SKY/WX    TMP DP  RH WIND       PRES   REMARKS
ALAMAGORDO     CLEAR     77  45  31 SE7       30.06S
ALBUQUERQUE    PTCLDY    81  45  28 VRB7      30.12R
CANNON AFB     CLEAR     66  50  55 S7        30.09R
CLOVIS         CLEAR     66  48  52 S8        30.10R
HOLLOMAN AFB   CLEAR     81  47  30 N9        30.04R
ROSWELL        CLEAR     74  53  48 S9        30.04R
RUIDOSO        CLEAR     66  46  48 MISG      30.29S
SANTA FE       MOCLDY    68  46  45 SE5       30.17R
TRUTH OR CONSE PTCLDY    78  50  37 W7        30.09R
TUCUMCARI      CLEAR     70  51  51 S6        30.03R
$$

USA.gov is the U.S. government's official web portal to all federal, state and local government web resources and services.